[[{"header":{"parameterUnit":"m.s-1","parameterCategory":1,"la1":30.2991,"la2":30.254,"lo1":-89.0895,"lo2":-89.0444,"dy":0.0017,"dx":0.0017,"nx":28,"ny":28,"refTime":"2024-07-19T21:00:00:Z","depth":0,"parameterNumber":2,"parameterNumberName":"U-component_of_WINDS"},"data":[0,0,0,0,0,0,0,0,0,0,0,0,0,0,0,0,0,0,0,0,0,0,0,0,0,0,0,0,0,0,0,0,0,0,0,0,0,0,0,0,0,0,0,0,0,0,0,0,0,0,0,0,0,0,0,0,0,0,3.0605,3.0607,0,3.0711,3.0713,3.0714,3.0701,3.07,3.0698,3.0696,3.0803,3.0807,3.0812,0,0,0,0,0,0,0,0,0,0,0,0,0,3.0387,3.0391,3.0605,3.0607,3.0608,3.0711,3.0713,3.0714,3.0702,3.0699,3.0697,3.0695,3.0801,3.0807,3.0812,0,0,0,0,0,0,0,0,0,0,0,0,0,3.0486,3.0393,3.0605,3.0614,3.0616,3.0711,3.0713,3.0714,3.0702,3.0699,3.0697,3.0694,3.08,3.0806,3.0813,3.0905,0,0,3.0833,3.0836,0,0,0,0,0,0,0,0,3.0481,3.0494,3.0612,3.0614,3.0616,3.069,3.0675,3.0778,3.0703,3.0669,3.0696,3.0693,3.0767,3.0777,3.0802,3.091,3.0914,3.0834,3.0838,3.084,3.0842,0,0,0,0,0,0,0,3.0474,3.049,3.0647,3.0613,3.0616,3.0611,3.0623,3.0694,3.0731,3.0672,3.0671,3.0684,3.0768,3.0796,3.0804,3.0916,3.0833,3.0839,3.0843,3.0846,3.1098,3.11,0,0,0,0,0,0,3.0465,3.0484,3.0644,3.065,3.0541,3.0617,3.063,3.0669,3.0731,3.0737,3.0686,3.0683,3.0786,3.0797,3.0808,3.0915,3.084,3.0847,3.085,3.1095,3.1099,3.1101,0,0,0,0,0,0,3.0461,3.048,3.064,3.0567,3.0587,3.0624,3.0668,3.0673,3.07,3.0741,3.0747,3.0708,3.0784,3.0799,3.0879,3.0919,3.085,3.0856,3.1092,3.1096,3.11,3.1133,0,0,0,0,0,0,3.0455,3.0478,3.0515,3.0568,3.0591,3.0711,3.0671,3.0676,3.0712,3.0709,3.0763,3.077,3.0783,3.087,3.0886,3.0927,3.0861,3.1089,3.1094,3.1099,3.1129,3.1138,3.1146,0,0,0,0,0,3.0447,3.0521,3.0517,3.0536,3.0638,3.0713,3.0726,3.0741,3.0715,3.0751,3.0776,3.0768,3.0913,3.0878,3.0896,3.094,3.1086,3.1092,3.1098,3.1125,3.1136,3.1146,0,0,0,0,0,0,3.0472,3.0528,3.0524,3.0618,3.0661,3.0711,3.0757,3.0753,3.0804,3.0799,3.0814,3.0826,3.0906,3.0932,3.0892,3.1029,3.0996,3.1006,3.1009,3.102,3.1029,3.102,3.0866,0,0,0,0,0,3.0488,3.0546,3.0592,3.067,3.0691,3.072,3.0754,3.0761,3.0806,3.0824,3.0856,3.0898,3.0953,3.0988,3.1042,3.1133,3.1142,3.1171,3.118,3.1187,3.1194,3.1239,3.1251,3.1121,3.1121,3.1121,0,0,3.0523,3.0561,3.0596,3.0676,3.071,3.0766,3.0736,3.0799,3.084,3.0833,3.091,3.0935,3.0983,3.1068,3.1107,3.1092,3.1232,3.1195,3.12,3.1204,3.1247,3.1259,3.127,3.1126,3.1125,3.1124,0,0,3.0614,3.065,3.0717,3.0751,3.0802,3.082,3.0836,3.0886,3.0902,3.098,3.0974,3.1023,3.1118,3.1151,3.1181,3.128,3.1272,3.1297,3.134,3.1384,3.1394,3.1403,3.1434,3.1446,3.1305,3.1305,3.1305,0,3.065,3.0737,3.0752,3.0814,3.0847,3.0843,3.0908,3.094,3.1006,3.1028,3.101,3.1125,3.1159,3.1248,3.1272,3.1298,3.1313,3.129,3.1392,3.1401,3.141,3.1439,3.1451,3.1307,3.1307,3.1307,3.1307,0,3.0776,3.0836,3.0884,3.0946,3.0984,3.1048,3.107,3.1108,3.1111,3.113,3.1206,3.1245,3.1303,3.1326,3.133,3.1415,3.1403,3.1389,3.1355,3.1424,3.1452,3.1464,3.1311,3.131,3.1309,3.1309,0,0,3.0887,3.0954,3.0971,3.0997,3.1051,3.1097,3.1159,3.1215,3.1245,3.129,3.1339,3.1418,3.1403,3.1436,3.1444,3.1483,3.1553,3.1463,3.1464,3.1475,3.1643,3.1651,3.1665,3.1549,3.1551,3.1553,3.1638,0,3.098,3.1089,3.1103,3.1199,3.1252,3.1247,3.13,3.1338,3.1357,3.1403,3.1424,3.1477,3.1456,3.1475,3.1514,3.1536,3.1586,3.1531,3.1592,3.1594,3.1577,3.168,3.169,3.1768,3.1649,3.1651,3.1653,0,3.1104,3.115,3.1251,3.1294,3.1317,3.1365,3.1415,3.146,3.1501,3.1512,3.1547,3.1549,3.161,3.1575,3.1656,3.1618,3.1644,3.1658,3.1662,3.1665,3.1625,3.1683,3.1794,3.1804,3.1671,3.1669,3.1668,0,3.1168,3.1257,3.1327,3.135,3.1404,3.1436,3.1459,3.1499,3.153,3.1574,3.1594,3.1645,3.1672,3.171,3.1723,3.1698,3.1803,3.177,3.181,3.1809,3.1831,3.1828,3.1943,3.1853,3.1853,3.1853,3.1852,0,3.1269,3.133,3.1356,3.1399,3.1466,3.148,3.1545,3.1567,3.1601,3.1646,3.1646,3.1688,3.1706,3.175,3.1762,3.1825,3.1838,3.1846,3.1848,3.1844,3.1843,3.1859,3.1853,3.1856,3.1855,3.1855,3.1854,0,3.1352,3.1373,3.1448,3.1491,3.1503,3.155,3.1586,3.1626,3.1644,3.1701,3.1715,3.1742,3.1794,3.1812,3.1876,3.1883,3.1954,3.1954,3.194,3.194,3.1977,3.1971,3.2104,3.212,3.2022,3.2023,3.2024,0,3.1413,3.146,3.1507,3.1537,3.1561,3.161,3.1641,3.1656,3.1688,3.1736,3.177,3.1821,3.1863,3.1945,3.1969,3.2016,3.2014,3.2057,3.2021,3.2014,3.2009,3.2005,3.2008,3.2063,3.2064,3.2065,3.2065,0,3.1518,3.1525,3.1571,3.1619,3.1656,3.1695,3.1732,3.1757,3.1776,3.1812,3.1864,3.1897,3.1959,3.2009,3.2056,3.2078,3.2074,3.2077,3.2087,3.2083,3.2071,3.2073,3.1954,3.2073,3.2072,3.2072,3.2071,3.2071,3.1589,3.1628,3.1666,3.1716,3.1745,3.1779,3.1817,3.1839,3.1883,3.1935,3.1941,3.1996,3.2032,3.2095,3.2119,3.216,3.2148,3.2166,3.2169,3.2172,3.2173,3.2067,3.217,3.217,3.2169,3.2169,3.2169,0,3.1691,3.1714,3.176,3.1811,3.1849,3.1842,3.1882,3.1913,3.1962,3.1996,3.2036,3.2094,3.2141,3.2168,3.2214,3.2242,3.224,3.2253,3.2249,3.2253,3.2183,3.2167,3.2253,3.2253,3.2253,3.2253,3.2253,3.2253,3.1748,3.1812,3.1822,3.1899,3.1922,3.1976,3.1999,3.2029,3.2055,3.212,3.2158,3.2176,3.2206,3.2254,3.2295,3.2301,3.2317,3.233,3.2335,3.2268,3.2259,3.2251,3.2235,3.2334,3.2334,3.2401,3.2402,3.2402]},{"header":{"parameterUnit":"m.s-1","parameterCategory":1,"la1":30.2991,"la2":30.254,"lo1":-89.0895,"lo2":-89.0444,"dy":0.0017,"dx":0.0017,"nx":28,"ny":28,"refTime":"2024-07-19T21:00:00:Z","depth":0,"parameterNumber":3,"parameterNumberName":"V-component_of_WINDS"},"data":[0,0,0,0,0,0,0,0,0,0,0,0,0,0,0,0,0,0,0,0,0,0,0,0,0,0,0,0,0,0,0,0,0,0,0,0,0,0,0,0,0,0,0,0,0,0,0,0,0,0,0,0,0,0,0,0,0,0,2.5765,2.5766,0,2.5842,2.5842,2.5843,2.5818,2.5816,2.5815,2.5813,2.5889,2.5893,2.5896,0,0,0,0,0,0,0,0,0,0,0,0,0,2.5594,2.5597,2.5765,2.5766,2.5767,2.5841,2.5842,2.5843,2.5818,2.5816,2.5814,2.5812,2.5888,2.5892,2.5896,0,0,0,0,0,0,0,0,0,0,0,0,0,2.5669,2.5598,2.5765,2.5764,2.5764,2.5841,2.5842,2.5844,2.5819,2.5816,2.5814,2.5811,2.5887,2.5892,2.5897,2.598,0,0,2.5913,2.5916,0,0,0,0,0,0,0,0,2.5665,2.5675,2.5763,2.5764,2.5765,2.5818,2.581,2.5889,2.5819,2.5798,2.5813,2.581,2.5867,2.5874,2.5894,2.5983,2.5986,2.5914,2.5917,2.5919,2.5921,0,0,0,0,0,0,0,2.566,2.5672,2.5795,2.5764,2.5765,2.5758,2.5766,2.5825,2.5845,2.58,2.5798,2.5807,2.5867,2.5889,2.5895,2.5987,2.5914,2.5918,2.5922,2.5924,2.6146,2.6148,0,0,0,0,0,0,2.5654,2.5668,2.5793,2.5798,2.5708,2.5763,2.5772,2.5803,2.5845,2.5849,2.5809,2.5806,2.5881,2.5889,2.5898,2.5996,2.5919,2.5924,2.5927,2.6143,2.6146,2.6149,0,0,0,0,0,0,2.5651,2.5666,2.579,2.5732,2.5748,2.5769,2.5804,2.5806,2.5827,2.5852,2.5855,2.5828,2.5879,2.589,2.5959,2.5998,2.5927,2.5932,2.614,2.6144,2.6148,2.6193,0,0,0,0,0,0,2.5646,2.5665,2.5697,2.5733,2.5751,2.5851,2.5806,2.5809,2.5837,2.5833,2.587,2.5874,2.5878,2.5951,2.5964,2.6004,2.5936,2.6137,2.6142,2.6147,2.6188,2.6198,2.6207,0,0,0,0,0,2.564,2.5707,2.5699,2.5714,2.5792,2.5853,2.5863,2.5867,2.584,2.5872,2.5888,2.5873,2.5992,2.5958,2.5973,2.6015,2.6134,2.614,2.6146,2.6184,2.6196,2.6206,0,0,0,0,0,0,2.5675,2.5712,2.5703,2.5784,2.5816,2.5849,2.589,2.588,2.5919,2.5914,2.5916,2.5925,2.5995,2.6012,2.5974,2.6096,2.6059,2.6068,2.6082,2.6094,2.6103,2.6097,2.594,0,0,0,0,0,2.5692,2.574,2.5769,2.5837,2.5854,2.5869,2.5896,2.5896,2.5928,2.5942,2.5962,2.5994,2.6038,2.6067,2.6109,2.619,2.6197,2.6226,2.6235,2.6243,2.6251,2.6293,2.6305,2.6169,2.6169,2.6169,0,0,2.5728,2.5754,2.5784,2.5845,2.5869,2.5917,2.588,2.5933,2.5968,2.5949,2.6015,2.6031,2.6066,2.6141,2.6175,2.6157,2.629,2.625,2.6256,2.626,2.63,2.6313,2.6324,2.6173,2.6173,2.6172,0,0,2.5817,2.5842,2.5901,2.5926,2.5964,2.5973,2.5987,2.6022,2.6032,2.6098,2.6084,2.6125,2.6202,2.6227,2.625,2.6347,2.6334,2.636,2.6408,2.6449,2.646,2.647,2.6503,2.6515,2.6368,2.6368,2.6368,0,2.5857,2.5929,2.5932,2.5986,2.6012,2.5998,2.6056,2.608,2.6129,2.6147,2.6127,2.6221,2.6244,2.6323,2.6347,2.6366,2.6381,2.6356,2.6458,2.6468,2.6477,2.6508,2.6521,2.6371,2.6371,2.637,2.637,0,2.5975,2.6026,2.6068,2.6116,2.6148,2.6203,2.6214,2.6245,2.6242,2.6253,2.6319,2.6346,2.6392,2.6411,2.6409,2.649,2.6477,2.6458,2.642,2.6493,2.6522,2.6534,2.6375,2.6374,2.6373,2.6373,0,0,2.6089,2.6137,2.6153,2.6174,2.6213,2.6252,2.6306,2.6351,2.6377,2.6411,2.6456,2.652,2.6501,2.6527,2.6527,2.6563,2.6636,2.6539,2.654,2.6555,2.6725,2.6739,2.6753,2.6628,2.663,2.6632,2.6722,0,2.6181,2.6277,2.6281,2.6368,2.6413,2.6399,2.6446,2.6474,2.6486,2.6525,2.6537,2.6582,2.6556,2.6571,2.6606,2.662,2.667,2.6614,2.6668,2.667,2.6659,2.6769,2.6784,2.6867,2.6733,2.6735,2.6737,0,2.6301,2.6339,2.6431,2.6462,2.6481,2.6523,2.6564,2.6603,2.6634,2.6639,2.6668,2.6662,2.6715,2.6677,2.6749,2.6711,2.6733,2.6743,2.6746,2.6751,2.6707,2.6775,2.6894,2.6906,2.6755,2.6754,2.6753,0,2.6373,2.6447,2.6511,2.6529,2.6568,2.6598,2.6615,2.6644,2.667,2.6706,2.6723,2.6764,2.6786,2.6818,2.6822,2.6794,2.6895,2.6857,2.69,2.69,2.6922,2.692,2.7045,2.6938,2.6937,2.6937,2.6937,0,2.6475,2.6531,2.6544,2.6583,2.6645,2.6648,2.6709,2.6724,2.6749,2.679,2.678,2.6818,2.6822,2.6861,2.6865,2.6924,2.6935,2.694,2.694,2.694,2.6939,2.6954,2.6948,2.694,2.694,2.6939,2.6939,0,2.6566,2.6577,2.6646,2.6676,2.6685,2.6729,2.6755,2.6791,2.6801,2.6853,2.6865,2.688,2.6925,2.6933,2.6987,2.6989,2.7059,2.7054,2.7049,2.7048,2.709,2.7085,2.7228,2.7246,2.7128,2.7129,2.713,0,2.663,2.6673,2.6708,2.6735,2.6753,2.6797,2.6824,2.6828,2.6856,2.6893,2.6925,2.6969,2.7005,2.7077,2.7092,2.7133,2.7128,2.7175,2.7134,2.7132,2.7127,2.7124,2.7127,2.7182,2.7184,2.7185,2.7186,0,2.6741,2.6744,2.6784,2.6825,2.6858,2.689,2.6921,2.6943,2.695,2.6982,2.7029,2.7056,2.711,2.7153,2.7193,2.7209,2.7198,2.7198,2.721,2.7211,2.7205,2.7207,2.7069,2.7195,2.7194,2.7193,2.7193,2.7192,2.682,2.6857,2.6887,2.6931,2.6954,2.6983,2.7018,2.7032,2.7071,2.7116,2.7115,2.7165,2.7193,2.7245,2.7264,2.7302,2.7287,2.7305,2.7309,2.7313,2.7316,2.72,2.731,2.731,2.7309,2.7309,2.7309,0,2.693,2.6948,2.6988,2.7031,2.7066,2.7053,2.7086,2.7115,2.7159,2.7187,2.7222,2.7274,2.7315,2.7333,2.7374,2.7401,2.7396,2.7411,2.7409,2.7412,2.7328,2.7314,2.7414,2.7413,2.7413,2.7413,2.7413,2.7413,2.6991,2.7052,2.7058,2.713,2.7147,2.7197,2.7216,2.7242,2.7264,2.7322,2.7357,2.7369,2.7392,2.7433,2.747,2.7474,2.7489,2.7506,2.7507,2.7429,2.7418,2.7408,2.7394,2.7509,2.7509,2.7588,2.7588,2.7589]}]]